New River MCAS, NC

2:14 AM EST on January 23, 2018 (GMT -0500)
New River Marine Corps Air Station

Weather History for KNCA - January, 2013

Change the Weather History Date:

Sunday, January 6, 2013

  Actual Average Record
Temperature  
Mean Temperature 44 °F -  
Max Temperature 48 °F 55 °F 73 °F (1998)
Min Temperature 41 °F 34 °F 9 °F (2018)
Degree Days  
Heating Degree Days 20    
Moisture  
Dew Point 40 °F    
Average Humidity 80    
Maximum Humidity 87    
Minimum Humidity 63    
Precipitation  
Precipitation 0.01 in - - ()
Sea Level Pressure  
Sea Level Pressure 30.17 in    
Wind  
Wind Speed 2 mph (WNW)    
Max Wind Speed 8 mph    
Max Gust Speed -    
Visibility 9 miles    
Events Rain    
Averages and records for this station are not official NWS values.
T = Trace of Precipitation, MM = Missing Value Source: NWS Daily Summary

Daily Weather History Graph

Daily Weather History Graph

Search for Another Location

Airport or City:

Trip Planner

Search our weather history database for the weather conditions in past years. The results will help you decide how hot, cold, wet, or windy it might be!

Date:

Astronomy

Jan. 06, 2013 Rise Set
Actual Time 7:17 AM EST 5:14 PM EST
Civil Twilight 6:49 AM EST 5:41 PM EST
Nautical Twilight 6:18 AM EST 6:13 PM EST
Astronomical Twilight 5:47 AM EST 6:43 PM EST
Moon 1:35 AM EST (1/6) 12:35 PM EST (1/6)
Length of Visible Light 10h 52m
Length of Day
9h 56m
Waning Crescent, 33% of the Moon is Illuminated
Jan 6
Waning Crescent
Jan 11
New
Jan 18
First Quarter
Jan 26
Full
Feb 3
Last Quarter

Hourly Weather History & Observations

Time (EST) Temp. Windchill Dew Point Humidity Pressure Visibility Wind Dir Wind Speed Gust Speed Precip Events Conditions
12:56 AM 41.0 °F - 33.1 °F 73% 30.29 in 10.0 mi Calm Calm - N/A   Clear
1:56 AM 42.1 °F - 34.0 °F 73% 30.27 in 10.0 mi Calm Calm - N/A   Partly Cloudy
2:56 AM 42.1 °F - 33.1 °F 70% 30.25 in 10.0 mi Calm Calm - N/A   Partly Cloudy
3:56 AM 43.0 °F 41.3 °F 33.1 °F 68% 30.25 in 10.0 mi WSW 3.5 mph - 0.00 in Rain Light Rain
4:56 AM 44.1 °F - 35.1 °F 71% 30.23 in 10.0 mi Calm Calm - 0.00 in   Overcast
5:56 AM 44.1 °F - 35.1 °F 71% 30.24 in 10.0 mi Calm Calm - N/A   Overcast
6:56 AM 44.1 °F - 36.0 °F 73% 30.24 in 10.0 mi Calm Calm - N/A   Overcast
7:56 AM 45.0 °F - 37.0 °F 74% 30.23 in 10.0 mi Calm Calm - N/A   Overcast
9:56 AM 46.9 °F - 36.0 °F 66% 30.25 in 10.0 mi Calm Calm - 0.00 in Rain Light Rain
10:56 AM 48.0 °F - 36.0 °F 63% 30.25 in 10.0 mi NW 5.8 mph - 0.00 in   Overcast
11:56 AM 46.9 °F - 39.9 °F 77% 30.20 in 10.0 mi WNW 4.6 mph - 0.00 in   Overcast
12:56 PM 46.9 °F - 41.0 °F 80% 30.17 in 10.0 mi WNW 4.6 mph - 0.00 in Rain Light Rain
1:51 PM 48.2 °F - 41.0 °F 76% 30.15 in 10.0 mi West 5.8 mph - 0.00 in Rain Light Rain
1:56 PM 48.0 °F - 42.1 °F 80% 30.16 in 10.0 mi West 8.1 mph - 0.00 in Rain Light Rain
2:38 PM 46.4 °F 43.5 °F 42.8 °F 87% 30.14 in 6.0 mi West 5.8 mph - 0.00 in   Haze
2:47 PM 46.4 °F 45.2 °F 42.8 °F 87% 30.14 in 5.0 mi West 3.5 mph - 0.00 in   Overcast
2:56 PM 46.9 °F - 42.1 °F 83% 30.15 in 4.0 mi WSW 3.5 mph - 0.00 in   Haze
3:13 PM 46.4 °F 44.3 °F 42.8 °F 87% 30.13 in 2.0 mi SW 4.6 mph - 0.01 in Rain Light Rain
3:30 PM 46.4 °F 45.2 °F 42.8 °F 87% 30.13 in 5.0 mi WSW 3.5 mph - 0.01 in   Overcast
3:56 PM 46.9 °F - 43.0 °F 86% 30.13 in 10.0 mi Calm Calm - 0.01 in   Overcast
4:56 PM 46.9 °F - 43.0 °F 86% 30.12 in 10.0 mi Calm Calm - N/A   Overcast
5:18 PM 46.4 °F - 42.8 °F 87% 30.11 in 10.0 mi Calm Calm - N/A   Overcast
5:56 PM 46.9 °F - 43.0 °F 86% 30.11 in 10.0 mi Calm Calm - N/A   Overcast
6:56 PM 46.9 °F - 43.0 °F 86% 30.10 in 10.0 mi South 4.6 mph - N/A   Overcast
7:56 PM 46.9 °F - 43.0 °F 86% 30.12 in 10.0 mi NNW 3.5 mph - N/A   Overcast
8:25 PM 46.4 °F 45.2 °F 42.8 °F 87% 30.12 in 10.0 mi NNW 3.5 mph - N/A   Overcast
8:56 PM 46.9 °F - 43.0 °F 86% 30.13 in 10.0 mi Calm Calm - N/A   Overcast
9:29 PM 46.4 °F 44.3 °F 42.8 °F 87% 30.13 in 9.0 mi NNW 4.6 mph - N/A   Overcast
9:56 PM 46.9 °F - 43.0 °F 86% 30.14 in 9.0 mi NW 3.5 mph - N/A   Overcast
10:18 PM 46.4 °F 44.3 °F 42.8 °F 87% 30.13 in 8.0 mi NNW 4.6 mph - N/A   Overcast
10:56 PM 46.9 °F - 43.0 °F 86% 30.16 in 9.0 mi NW 6.9 mph - N/A   Overcast
11:21 PM 46.4 °F 42.4 °F 42.8 °F 87% 30.15 in 10.0 mi NW 8.1 mph - N/A   Overcast
11:56 PM 46.9 °F - 42.1 °F 83% 30.17 in 10.0 mi NW 6.9 mph - N/A   Overcast